{"data":{"norad_id":58304,"epoch":"2026-06-29T05:39:08.710272Z","epoch_age_seconds":7208488,"freshness":"OLD","line1":"1 58304U 23174BA  26180.23551748  .00096662  00000+0  12650-2 0  9993","line2":"2 58304  97.3937 272.4170 0003949 112.9567 247.2106 15.58278541147638","mean_motion":15.58278541,"eccentricity":0.0003949,"inclination_deg":97.3937,"raan_deg":272.417,"arg_perigee_deg":112.9567,"mean_anomaly_deg":247.2106,"bstar":0.001265,"rev_number":14763,"period_min":92.409666315234,"perigee_km":389.96524919128,"apogee_km":395.31280809871,"semimajor_km":6770.776028645,"source":"CELESTRAK","updated_at":"2026-06-30T09:00:20.237509Z"}}